Time,TemperatureF,DewpointF,PressureIn,WindDirection,WindDirectionDegrees,WindSpeedMPH,WindSpeedGustMPH,Humidity,HourlyPrecipIn,Conditions,Clouds,dailyrainin,SoftwareType,DateUTC
2013-05-13 00:03:00,50.0,32.0,30.04,WNW,299,0.0,-999.0,50,-99.99,,,-99.99,,2013-05-13 04:03:00,
2013-05-13 00:12:00,50.0,32.0,30.04,WNW,299,0.0,-999.0,50,-99.99,,,-99.99,,2013-05-13 04:12:00,
2013-05-13 00:23:00,50.0,32.0,30.04,WNW,299,0.0,-999.0,50,-99.99,,,-99.99,,2013-05-13 04:23:00,
2013-05-13 00:33:00,50.0,33.0,30.05,NW,313,0.0,-999.0,52,-99.99,,,-99.99,,2013-05-13 04:33:00,
2013-05-13 00:42:00,50.0,33.0,30.05,NW,313,0.0,-999.0,52,-99.99,,,-99.99,,2013-05-13 04:42:00,
2013-05-13 00:53:00,48.0,35.0,30.05,NW,313,0.0,-999.0,60,-99.99,,,-99.99,,2013-05-13 04:53:00,
2013-05-13 01:02:00,47.0,34.0,30.06,NW,313,0.0,-999.0,61,-99.99,,,-99.99,,2013-05-13 05:02:00,
2013-05-13 01:12:00,47.0,34.0,30.06,NW,313,0.0,-999.0,61,-99.99,,,-99.99,,2013-05-13 05:12:00,
2013-05-13 01:22:00,46.0,33.0,30.06,NW,313,0.0,-999.0,61,-99.99,,,-99.99,,2013-05-13 05:22:00,
2013-05-13 01:32:00,47.0,33.0,30.06,NW,313,0.0,-999.0,57,-99.99,,,-99.99,,2013-05-13 05:32:00,
2013-05-13 01:42:00,47.0,33.0,30.06,NW,313,0.0,-999.0,57,-99.99,,,-99.99,,2013-05-13 05:42:00,
2013-05-13 01:52:00,47.0,33.0,30.06,NW,313,0.0,-999.0,58,-99.99,,,-99.99,,2013-05-13 05:52:00,
2013-05-13 02:01:00,45.0,32.0,30.07,NW,313,0.0,-999.0,60,-99.99,,,-99.99,,2013-05-13 06:01:00,
2013-05-13 02:11:00,45.0,32.0,30.07,NW,313,0.0,-999.0,60,-99.99,,,-99.99,,2013-05-13 06:11:00,
2013-05-13 02:21:00,45.0,32.0,30.06,NW,313,0.0,-999.0,60,-99.99,,,-99.99,,2013-05-13 06:21:00,
2013-05-13 02:32:00,45.0,32.0,30.05,NW,313,0.0,-999.0,61,-99.99,,,-99.99,,2013-05-13 06:32:00,
2013-05-13 02:42:00,45.0,35.0,30.05,NW,313,0.0,-999.0,68,-99.99,,,-99.99,,2013-05-13 06:42:00,
2013-05-13 02:52:00,45.0,35.0,30.05,NW,313,0.0,-999.0,68,-99.99,,,-99.99,,2013-05-13 06:52:00,
2013-05-13 03:01:00,43.0,32.0,30.06,NW,313,0.0,-999.0,66,-99.99,,,-99.99,,2013-05-13 07:01:00,
2013-05-13 03:11:00,43.0,32.0,30.06,NW,313,0.0,-999.0,66,-99.99,,,-99.99,,2013-05-13 07:11:00,
2013-05-13 03:22:00,43.0,32.0,30.05,NW,313,0.0,-999.0,66,-99.99,,,-99.99,,2013-05-13 07:22:00,
2013-05-13 03:32:00,44.0,33.0,30.06,NW,313,0.0,-999.0,66,-99.99,,,-99.99,,2013-05-13 07:32:00,
2013-05-13 03:42:00,44.0,33.0,30.06,NW,313,0.0,-999.0,64,-99.99,,,-99.99,,2013-05-13 07:42:00,
2013-05-13 03:52:00,44.0,33.0,30.06,NW,313,0.0,-999.0,64,-99.99,,,-99.99,,2013-05-13 07:52:00,
2013-05-13 04:02:00,46.0,33.0,30.06,NW,313,0.0,-999.0,60,-99.99,,,-99.99,,2013-05-13 08:02:00,
2013-05-13 04:11:00,46.0,33.0,30.06,NW,313,0.0,-999.0,60,-99.99,,,-99.99,,2013-05-13 08:11:00,
2013-05-13 04:21:00,46.0,31.0,30.07,NW,311,0.0,-999.0,56,-99.99,,,-99.99,,2013-05-13 08:21:00,
2013-05-13 04:32:00,46.0,32.0,30.07,NW,307,0.0,-999.0,58,-99.99,,,-99.99,,2013-05-13 08:32:00,
2013-05-13 04:42:00,46.0,32.0,30.07,NW,307,0.0,-999.0,58,-99.99,,,-99.99,,2013-05-13 08:42:00,
2013-05-13 04:52:00,45.0,32.0,30.08,NW,311,0.0,-999.0,60,-99.99,,,-99.99,,2013-05-13 08:52:00,
2013-05-13 05:01:00,45.0,32.0,30.08,West,278,0.0,-999.0,61,-99.99,,,-99.99,,2013-05-13 09:01:00,
2013-05-13 05:11:00,45.0,32.0,30.08,West,278,0.0,-999.0,61,-99.99,,,-99.99,,2013-05-13 09:11:00,
2013-05-13 05:21:00,44.0,31.0,30.09,West,278,0.0,-999.0,61,-99.99,,,-99.99,,2013-05-13 09:21:00,
2013-05-13 05:33:00,43.0,33.0,30.09,West,278,0.0,-999.0,67,-99.99,,,-99.99,,2013-05-13 09:33:00,
2013-05-13 05:42:00,43.0,33.0,30.09,West,278,0.0,-999.0,67,-99.99,,,-99.99,,2013-05-13 09:42:00,
2013-05-13 05:52:00,43.0,32.0,30.09,West,278,0.0,-999.0,65,-99.99,,,-99.99,,2013-05-13 09:52:00,
2013-05-13 06:03:00,42.0,32.0,30.10,West,278,0.0,-999.0,67,-99.99,,,-99.99,,2013-05-13 10:03:00,
2013-05-13 06:12:00,42.0,32.0,30.10,West,278,0.0,-999.0,67,-99.99,,,-99.99,,2013-05-13 10:12:00,
2013-05-13 06:22:00,42.0,31.0,30.10,West,278,0.0,-999.0,65,-99.99,,,-99.99,,2013-05-13 10:22:00,
2013-05-13 06:33:00,42.0,31.0,30.10,West,278,0.0,-999.0,64,-99.99,,,-99.99,,2013-05-13 10:33:00,
2013-05-13 06:42:00,42.0,31.0,30.10,West,278,0.0,-999.0,64,-99.99,,,-99.99,,2013-05-13 10:42:00,
2013-05-13 06:52:00,42.0,31.0,30.11,West,278,0.0,-999.0,66,-99.99,,,-99.99,,2013-05-13 10:52:00,
2013-05-13 07:03:00,42.0,33.0,30.11,West,278,0.0,-999.0,70,-99.99,,,-99.99,,2013-05-13 11:03:00,
2013-05-13 07:12:00,42.0,33.0,30.11,West,278,0.0,-999.0,70,-99.99,,,-99.99,,2013-05-13 11:12:00,
2013-05-13 07:22:00,42.0,34.0,30.13,West,278,0.0,-999.0,72,-99.99,,,-99.99,,2013-05-13 11:22:00,
2013-05-13 07:32:00,42.0,35.0,30.13,West,278,0.0,-999.0,75,-99.99,,,-99.99,,2013-05-13 11:32:00,
2013-05-13 07:42:00,42.0,35.0,30.13,West,278,0.0,-999.0,75,-99.99,,,-99.99,,2013-05-13 11:42:00,
2013-05-13 07:52:00,43.0,36.0,30.14,West,278,0.0,-999.0,77,-99.99,,,-99.99,,2013-05-13 11:52:00,
2013-05-13 08:02:00,43.0,34.0,30.14,West,278,0.0,-999.0,70,-99.99,,,-99.99,,2013-05-13 12:02:00,
2013-05-13 08:12:00,43.0,34.0,30.14,West,278,0.0,-999.0,70,-99.99,,,-99.99,,2013-05-13 12:12:00,
2013-05-13 08:21:00,44.0,36.0,30.14,West,278,0.0,-999.0,72,-99.99,,,-99.99,,2013-05-13 12:21:00,
2013-05-13 08:32:00,45.0,36.0,30.15,West,278,0.0,-999.0,71,-99.99,,,-99.99,,2013-05-13 12:32:00,
2013-05-13 08:42:00,45.0,36.0,30.15,West,278,0.0,-999.0,71,-99.99,,,-99.99,,2013-05-13 12:42:00,
2013-05-13 08:51:00,47.0,37.0,30.15,WSW,250,0.0,-999.0,68,-99.99,,,-99.99,,2013-05-13 12:51:00,
2013-05-13 09:01:00,48.0,39.0,30.16,SW,229,0.0,-999.0,70,-99.99,,,-99.99,,2013-05-13 13:01:00,
2013-05-13 09:11:00,48.0,39.0,30.16,SW,229,0.0,-999.0,70,-99.99,,,-99.99,,2013-05-13 13:11:00,
2013-05-13 09:21:00,48.0,38.0,30.17,SW,229,0.0,-999.0,68,-99.99,,,-99.99,,2013-05-13 13:21:00,
2013-05-13 09:32:00,49.0,37.0,30.16,SW,229,0.0,-999.0,62,-99.99,,,-99.99,,2013-05-13 13:32:00,
2013-05-13 09:42:00,50.0,34.0,30.17,NW,304,0.0,-999.0,53,-99.99,,,-99.99,,2013-05-13 13:42:00,
2013-05-13 09:52:00,50.0,34.0,30.17,NW,304,0.0,-999.0,53,-99.99,,,-99.99,,2013-05-13 13:52:00,
2013-05-13 10:02:00,52.0,33.0,30.16,West,267,0.0,-999.0,48,-99.99,,,-99.99,,2013-05-13 14:02:00,
2013-05-13 10:11:00,52.0,33.0,30.16,West,267,0.0,-999.0,48,-99.99,,,-99.99,,2013-05-13 14:11:00,
2013-05-13 10:22:00,52.0,31.0,30.17,NW,309,0.0,-999.0,45,-99.99,,,-99.99,,2013-05-13 14:22:00,
2013-05-13 10:32:00,53.0,33.0,30.16,WSW,252,1.0,-999.0,47,-99.99,,,-99.99,,2013-05-13 14:32:00,
2013-05-13 10:41:00,53.0,33.0,30.16,WSW,252,1.0,-999.0,47,-99.99,,,-99.99,,2013-05-13 14:41:00,
2013-05-13 10:51:00,53.0,32.0,30.16,WNW,300,0.0,-999.0,44,-99.99,,,-99.99,,2013-05-13 14:51:00,
2013-05-13 11:01:00,54.0,31.0,30.16,West,273,1.0,-999.0,42,-99.99,,,-99.99,,2013-05-13 15:01:00,
2013-05-13 11:11:00,54.0,31.0,30.16,West,273,1.0,-999.0,42,-99.99,,,-99.99,,2013-05-13 15:11:00,
2013-05-13 11:21:00,56.0,33.0,30.16,NW,311,1.0,-999.0,42,-99.99,,,-99.99,,2013-05-13 15:21:00,
2013-05-13 11:32:00,57.0,32.0,30.16,SSW,199,1.0,-999.0,39,-99.99,,,-99.99,,2013-05-13 15:32:00,
2013-05-13 11:42:00,57.0,32.0,30.16,SSW,199,1.0,-999.0,39,-99.99,,,-99.99,,2013-05-13 15:42:00,
2013-05-13 11:53:00,57.0,31.0,30.16,West,270,1.0,-999.0,37,-99.99,,,-99.99,,2013-05-13 15:53:00,
2013-05-13 12:03:00,58.0,32.0,30.16,NE,50,1.0,-999.0,37,-99.99,,,-99.99,,2013-05-13 16:03:00,
2013-05-13 12:12:00,58.0,32.0,30.16,NE,50,1.0,-999.0,37,-99.99,,,-99.99,,2013-05-13 16:12:00,
2013-05-13 12:21:00,58.0,31.0,30.15,SSW,205,1.0,-999.0,36,-99.99,,,-99.99,,2013-05-13 16:21:00,
2013-05-13 12:33:00,59.0,28.0,30.14,WNW,286,1.0,-999.0,31,-99.99,,,-99.99,,2013-05-13 16:33:00,
2013-05-13 12:42:00,60.0,32.0,30.14,SW,217,1.0,-999.0,34,-99.99,,,-99.99,,2013-05-13 16:42:00,
2013-05-13 12:52:00,60.0,32.0,30.14,SW,217,1.0,-999.0,34,-99.99,,,-99.99,,2013-05-13 16:52:00,
2013-05-13 13:02:00,59.0,31.0,30.14,NW,321,1.0,-999.0,34,-99.99,,,-99.99,,2013-05-13 17:02:00,
2013-05-13 13:12:00,59.0,31.0,30.14,NW,321,1.0,-999.0,34,-99.99,,,-99.99,,2013-05-13 17:12:00,
2013-05-13 13:21:00,60.0,33.0,30.14,North,360,1.0,-999.0,36,-99.99,,,-99.99,,2013-05-13 17:21:00,
2013-05-13 13:32:00,60.0,30.0,30.12,WNW,292,0.0,-999.0,32,-99.99,,,-99.99,,2013-05-13 17:32:00,
2013-05-13 13:42:00,60.0,30.0,30.12,WNW,292,0.0,-999.0,32,-99.99,,,-99.99,,2013-05-13 17:42:00,
2013-05-13 13:54:00,60.0,33.0,30.13,West,279,2.0,-999.0,36,-99.99,,,-99.99,,2013-05-13 17:54:00,
2013-05-13 14:03:00,60.0,31.0,30.12,WSW,243,2.0,-999.0,33,-99.99,,,-99.99,,2013-05-13 18:03:00,
2013-05-13 14:13:00,60.0,31.0,30.12,WSW,243,2.0,-999.0,33,-99.99,,,-99.99,,2013-05-13 18:13:00,
2013-05-13 14:23:00,61.0,32.0,30.12,NW,311,2.0,-999.0,33,-99.99,,,-99.99,,2013-05-13 18:23:00,
2013-05-13 14:32:00,61.0,32.0,30.12,North,360,0.0,-999.0,33,-99.99,,,-99.99,,2013-05-13 18:32:00,
2013-05-13 14:42:00,61.0,29.0,30.11,NNW,345,2.0,-999.0,30,-99.99,,,-99.99,,2013-05-13 18:42:00,
2013-05-13 14:51:00,61.0,29.0,30.11,NNW,345,2.0,-999.0,30,-99.99,,,-99.99,,2013-05-13 18:51:00,
2013-05-13 15:01:00,61.0,29.0,30.10,NNW,331,1.0,-999.0,30,-99.99,,,-99.99,,2013-05-13 19:01:00,
2013-05-13 15:11:00,61.0,29.0,30.10,NNW,331,1.0,-999.0,30,-99.99,,,-99.99,,2013-05-13 19:11:00,
2013-05-13 15:22:00,60.0,30.0,30.10,WNW,282,1.0,-999.0,32,-99.99,,,-99.99,,2013-05-13 19:22:00,
2013-05-13 15:32:00,61.0,33.0,30.09,NW,324,1.0,-999.0,35,-99.99,,,-99.99,,2013-05-13 19:32:00,
2013-05-13 15:44:00,61.0,32.0,30.09,ENE,60,1.0,-999.0,33,-99.99,,,-99.99,,2013-05-13 19:44:00,
2013-05-13 15:53:00,61.0,32.0,30.09,ENE,60,1.0,-999.0,33,-99.99,,,-99.99,,2013-05-13 19:53:00,
2013-05-13 16:02:00,61.0,32.0,30.09,WNW,301,1.0,-999.0,34,-99.99,,,-99.99,,2013-05-13 20:02:00,
2013-05-13 16:11:00,61.0,32.0,30.09,WNW,301,1.0,-999.0,34,-99.99,,,-99.99,,2013-05-13 20:11:00,
2013-05-13 16:23:00,62.0,32.0,30.08,NE,38,1.0,-999.0,32,-99.99,,,-99.99,,2013-05-13 20:23:00,
2013-05-13 16:34:00,62.0,32.0,30.07,West,281,1.0,-999.0,32,-99.99,,,-99.99,,2013-05-13 20:34:00,
2013-05-13 16:44:00,62.0,32.0,30.07,West,281,1.0,-999.0,32,-99.99,,,-99.99,,2013-05-13 20:44:00,
2013-05-13 16:53:00,61.0,30.0,30.07,West,269,0.0,-999.0,31,-99.99,,,-99.99,,2013-05-13 20:53:00,
2013-05-13 17:03:00,62.0,31.0,30.07,WNW,282,1.0,-999.0,31,-99.99,,,-99.99,,2013-05-13 21:03:00,
2013-05-13 17:14:00,62.0,31.0,30.07,WNW,282,1.0,-999.0,31,-99.99,,,-99.99,,2013-05-13 21:14:00,
2013-05-13 17:23:00,62.0,29.0,30.07,NW,325,1.0,-999.0,28,-99.99,,,-99.99,,2013-05-13 21:23:00,
2013-05-13 17:33:00,61.0,32.0,30.07,West,263,1.0,-999.0,34,-99.99,,,-99.99,,2013-05-13 21:33:00,
2013-05-13 17:43:00,61.0,32.0,30.07,West,263,1.0,-999.0,34,-99.99,,,-99.99,,2013-05-13 21:43:00,
2013-05-13 17:53:00,62.0,35.0,30.07,West,281,0.0,-999.0,36,-99.99,,,-99.99,,2013-05-13 21:53:00,
2013-05-13 18:03:00,62.0,29.0,30.07,NW,313,1.0,-999.0,29,-99.99,,,-99.99,,2013-05-13 22:03:00,
2013-05-13 18:12:00,62.0,29.0,30.07,NW,313,1.0,-999.0,29,-99.99,,,-99.99,,2013-05-13 22:12:00,
2013-05-13 18:23:00,62.0,31.0,30.07,NW,321,1.0,-999.0,31,-99.99,,,-99.99,,2013-05-13 22:23:00,
2013-05-13 18:32:00,60.0,30.0,30.07,NNW,332,1.0,-999.0,32,-99.99,,,-99.99,,2013-05-13 22:32:00,
2013-05-13 18:43:00,59.0,29.0,30.07,NNW,346,0.0,-999.0,32,-99.99,,,-99.99,,2013-05-13 22:43:00,
2013-05-13 18:52:00,59.0,29.0,30.07,NNW,346,0.0,-999.0,32,-99.99,,,-99.99,,2013-05-13 22:52:00,
2013-05-13 19:02:00,60.0,29.0,30.07,NNW,342,0.0,-999.0,31,-99.99,,,-99.99,,2013-05-13 23:02:00,
2013-05-13 19:13:00,60.0,29.0,30.07,NNW,342,0.0,-999.0,31,-99.99,,,-99.99,,2013-05-13 23:13:00,
2013-05-13 19:23:00,59.0,28.0,30.07,NW,306,1.0,-999.0,31,-99.99,,,-99.99,,2013-05-13 23:23:00,
2013-05-13 19:34:00,59.0,33.0,30.07,WNW,283,0.0,-999.0,38,-99.99,,,-99.99,,2013-05-13 23:34:00,
2013-05-13 19:42:00,59.0,33.0,30.07,WNW,283,0.0,-999.0,38,-99.99,,,-99.99,,2013-05-13 23:42:00,
2013-05-13 19:53:00,58.0,31.0,30.07,WNW,298,0.0,-999.0,35,-99.99,,,-99.99,,2013-05-13 23:53:00,
2013-05-13 20:02:00,57.0,29.0,30.08,NW,311,0.0,-999.0,34,-99.99,,,-99.99,,2013-05-14 00:02:00,
2013-05-13 20:13:00,57.0,29.0,30.08,NW,311,0.0,-999.0,34,-99.99,,,-99.99,,2013-05-14 00:13:00,
2013-05-13 20:22:00,56.0,28.0,30.08,NNW,339,1.0,-999.0,34,-99.99,,,-99.99,,2013-05-14 00:22:00,
2013-05-13 20:32:00,56.0,31.0,30.09,West,275,0.0,-999.0,38,-99.99,,,-99.99,,2013-05-14 00:32:00,
2013-05-13 20:42:00,56.0,31.0,30.09,West,275,0.0,-999.0,38,-99.99,,,-99.99,,2013-05-14 00:42:00,
2013-05-13 20:51:00,55.0,29.0,30.10,NNW,328,1.0,-999.0,36,-99.99,,,-99.99,,2013-05-14 00:51:00,
2013-05-13 21:02:00,55.0,30.0,30.11,West,276,0.0,-999.0,38,-99.99,,,-99.99,,2013-05-14 01:02:00,
2013-05-13 21:11:00,55.0,30.0,30.11,West,276,0.0,-999.0,38,-99.99,,,-99.99,,2013-05-14 01:11:00,
2013-05-13 21:21:00,54.0,29.0,30.12,WNW,300,0.0,-999.0,38,-99.99,,,-99.99,,2013-05-14 01:21:00,
2013-05-13 21:32:00,53.0,29.0,30.13,WNW,295,0.0,-999.0,40,-99.99,,,-99.99,,2013-05-14 01:32:00,
2013-05-13 21:43:00,53.0,29.0,30.13,WNW,295,0.0,-999.0,40,-99.99,,,-99.99,,2013-05-14 01:43:00,
2013-05-13 21:53:00,52.0,31.0,30.14,WNW,295,0.0,-999.0,44,-99.99,,,-99.99,,2013-05-14 01:53:00,
2013-05-13 22:02:00,53.0,31.0,30.14,NW,311,0.0,-999.0,43,-99.99,,,-99.99,,2013-05-14 02:02:00,
2013-05-13 22:12:00,52.0,32.0,30.15,NW,311,0.0,-999.0,46,-99.99,,,-99.99,,2013-05-14 02:12:00,
2013-05-13 22:22:00,52.0,32.0,30.15,NW,311,0.0,-999.0,46,-99.99,,,-99.99,,2013-05-14 02:22:00,
2013-05-13 22:32:00,51.0,30.0,30.16,NW,311,0.0,-999.0,45,-99.99,,,-99.99,,2013-05-14 02:32:00,
2013-05-13 22:42:00,51.0,30.0,30.16,NW,311,0.0,-999.0,45,-99.99,,,-99.99,,2013-05-14 02:42:00,
2013-05-13 22:52:00,50.0,30.0,30.16,NW,311,0.0,-999.0,46,-99.99,,,-99.99,,2013-05-14 02:52:00,
2013-05-13 23:01:00,50.0,31.0,30.18,NW,311,0.0,-999.0,47,-99.99,,,-99.99,,2013-05-14 03:01:00,
2013-05-13 23:11:00,50.0,31.0,30.18,NW,311,0.0,-999.0,47,-99.99,,,-99.99,,2013-05-14 03:11:00,
2013-05-13 23:21:00,50.0,30.0,30.19,NW,311,0.0,-999.0,46,-99.99,,,-99.99,,2013-05-14 03:21:00,
2013-05-13 23:33:00,50.0,31.0,30.19,NW,311,0.0,-999.0,47,-99.99,,,-99.99,,2013-05-14 03:33:00,
2013-05-13 23:42:00,50.0,31.0,30.19,NW,311,0.0,-999.0,47,-99.99,,,-99.99,,2013-05-14 03:42:00,
2013-05-13 23:52:00,50.0,30.0,30.19,NW,311,0.0,-999.0,46,-99.99,,,-99.99,,2013-05-14 03:52:00,